Find Local Weather

World > North America > United States > Iowa

Glenwood, Iowa Regional Weather

Lat: 41.05N, Lon: 95.74W
Wx Zone: IAZ079
Warning FLW WEATHER ALERT - (More Info. Click Here) Warning
Feedback
Expires:201806190500;;759812
ASUS43 KDMX 190406
RWRIA 

WEATHER ROUNDUP FOR IOWA
NATIONAL WEATHER SERVICE DES MOINES IA
1100 PM CDT MON JUN 18 2018

NOTE: "FAIR" INDICATES FEW OR NO CLOUDS BELOW 12,000 FEET WITH NO
SIGNIFICANT WEATHER AND/OR OBSTRUCTIONS TO VISIBILITY.

* - THESE STATIONS ARE NOT NWS STATIONS...THUS NOT UNDER NWS
QUALITY CONTROL.  THEY ALSO DO NOT REPORT WEATHER SUCH 
AS PRECIPITATION OR FOG.  


IAZ055>058-069>071-079>083-090>094-190500-
   SOUTHWEST IOWA
  
CITY           SKY/WX    TMP DP  RH WIND       PRES   REMARKS
ATLANTIC *     CLOUDY    72  70  94 CALM      29.96F                  
AUDUBON *      MOCLDY    72  66  83 CALM      29.97R                  
CLARINDA *     CLOUDY    75  72  88 NE5       29.97R                  
COUNCIL BLFS * CLOUDY    70  70 100 NE7       29.96R                  
CRESTON *      CLOUDY    75  70  83 NE14      29.99S                  
LAMONI         PTCLDY    81  71  71 S7        29.97R HX  85           
RED OAK *      CLOUDY    72  70  94 NE7       29.97R                  
SHENANDOAH *   CLOUDY    75  72  88 NE5       29.96R                  
$$
 

SKY/WX - Weather  TMP - Temperature  DP - Dewpoint  RH - Relative Humidity
WIND - Wind Direction/Speed PRES - Barometric Pressure